Location: ????????
(54.6123°N, 39.2099°E)
Time: 03:00:17
(UTC+00:00)

SL-24 R/B - Pass Details

Date: 19 May 2025
Orbit: 623 x 1072 km, 98.1° (Epoch: 14 June)

Event Time Altitude Azimuth Distance (km) Brightness Sun altitude
Rises 19:19:58 0° 15° (NNE) 2,928 8.3 -11.2°
Reaches altitude 10° 19:22:09 10° 17° (NNE) 2,010 7.4 -11.3°
Maximum altitude 19:26:28 80° 105° (ESE) 649 4.1 -11.6°
Enters shadow 19:30:54 10° 192° (SSW) 2,060 6.3 -11.9°
